This is the latest recevied weather packets stored in our database for station/object AB8Y-13. If no packets are shown the sender has not sent any weather packets the latest 10 day(s).
| Time | Temp. | Humidity | Pressure | Rain* | Wind** | Luminosity | Snow |
|---|---|---|---|---|---|---|---|
| 1776999260 | 18.33° C | 72% | 1009.9 hPa | 0 mm | - | 0 W/m² | - |
| 1776998956 | 18.33° C | 71% | 1010 hPa | 0 mm | - | 0 W/m² | - |
| 1776998655 | 18.33° C | 72% | 1010.1 hPa | 0 mm | - | 0 W/m² | - |
| 1776998350 | 17.78° C | 72% | 1010 hPa | 0 mm | - | 0 W/m² | - |
| 1776998046 | 18.33° C | 72% | 1009.8 hPa | 0 mm | - | 0 W/m² | - |
| 1776997740 | 18.33° C | 70% | 1010 hPa | 0 mm | - | 0 W/m² | - |
| 1776997436 | 18.89° C | 69% | 1009.8 hPa | 0 mm | - | 0 W/m² | - |
| 1776997133 | 19.44° C | 68% | 1009.8 hPa | 0 mm | - | 0 W/m² | - |
| 1776996830 | 19.44° C | 67% | 1009.9 hPa | 0 mm | - | 0 W/m² | - |
| 1776996525 | 20° C | 65% | 1009.7 hPa | 0 mm | - | 0 W/m² | - |
| 1776996221 | 20.56° C | 63% | 1010 hPa | 0 mm | - | 0 W/m² | - |
| 1776995919 | 20.56° C | 63% | 1009.8 hPa | 0 mm | - | 0 W/m² | - |
| 1776995614 | 20.56° C | 62% | 1009.7 hPa | 0 mm | - | 0 W/m² | - |
| 1776995314 | 20.56° C | 62% | 1009.8 hPa | 0 mm | - | 0 W/m² | - |
| 1776995011 | 20.56° C | 63% | 1009.8 hPa | 0 mm | - | 0 W/m² | - |
| 1776994706 | 20.56° C | 63% | 1009.7 hPa | 0 mm | - | 0 W/m² | - |
| 1776994402 | 20° C | 64% | 1009.7 hPa | 0 mm | - | 0 W/m² | - |
| 1776994099 | 20.56° C | 63% | 1009.7 hPa | 0 mm | - | 0 W/m² | - |
| 1776993796 | 20.56° C | 62% | 1009.5 hPa | 0 mm | - | 0 W/m² | - |
| 1776993494 | 21.11° C | 62% | 1009.4 hPa | 0 mm | - | 0 W/m² | - |
| 1776993190 | 20.56° C | 62% | 1009.5 hPa | 0 mm | - | 0 W/m² | - |
| 1776992887 | 20.56° C | 64% | 1009.3 hPa | 0 mm | - | 0 W/m² | - |
| 1776992583 | 20° C | 64% | 1009.7 hPa | 0 mm | - | 0 W/m² | - |
| 1776992281 | 20.56° C | 66% | 1009.4 hPa | 0 mm | - | 0 W/m² | - |
| 1776991977 | 20.56° C | 64% | 1009.5 hPa | 0 mm | - | 0 W/m² | - |
* Rain latest hour (hover to see other rain measurements)
** Current wind speed in m/s (hover to see current wind gust speed)